Location: Fredericksburg
(30.2750°N, 98.8720°W)
Time: 00:17:25
(UTC-05:00)

Daily predictions for brighter satellites

Satellite Brightness Start Highest point End
(mag) Time Altitude Azimuth Time Altitude Azimuth Time Altitude Azimuth
ATLAS 3B R/B 4.2 03:47:01 28° ESE 03:47:16 28° ESE 03:53:05 10° NE
SEDSat Delta rocket 4.4 04:10:38 55° E 04:10:38 55° E 04:15:51 10° E
Cosmos 1980 Rocket 3.4 04:07:17 10° N 04:12:31 38° ENE 04:15:16 24° ESE
CZ-2D R/B 4.0 04:09:17 10° N 04:11:20 22° NNW 04:11:20 22° NNW
Cosmos 2082 Rocket 3.9 04:16:53 22° NNW 04:16:53 22° NNW 04:19:20 10° N
USA 215 3.3 04:08:11 10° NE 04:14:17 74° E 04:14:17 74° E
Cosmos 1697 Rocket 4.2 04:10:15 10° NNW 04:12:51 28° NNW 04:12:51 28° NNW
SL-16 R/B 4.0 04:19:42 26° NW 04:19:42 26° NW 04:22:21 10° NNW
ARIANE 5 R/B 4.0 04:21:19 10° N 04:23:59 29° NNW 04:23:59 29° NNW
Centaur D-1AR AC-39 4.3 04:33:38 22° SSE 04:33:38 22° SSE 04:36:03 10° SE
Cosmos 1814 Rocket 4.4 04:34:05 59° NE 04:34:05 59° NE 04:38:26 10° NNE
Cosmos 1375 Rocket 4.3 04:36:56 86° SW 04:37:05 88° WNW 04:43:38 10° NNE
OAO 3 Rocket 3.9 04:41:40 50° ENE 04:41:40 50° ENE 04:45:19 10° E
Cosmos 1428 Rocket 4.3 04:36:36 10° N 04:42:47 82° W 04:42:54 81° WSW
Cosmos 724 4.4 04:44:34 61° NW 04:44:34 61° NW 04:49:52 10° NNE
USA 238 DEB 3.6 04:43:52 67° SSW 04:44:55 87° ESE 04:51:51 10° NNE
USA 238 3.6 04:43:57 67° SSW 04:45:01 87° ESE 04:51:58 10° NNE
ADEOS II 2.0 04:40:20 10° NNE 04:45:35 78° E 04:45:42 77° ESE
ADEOS 4.2 04:46:46 10° N 04:50:44 43° NW 04:50:44 43° NW
Resurs 1-4 Rocket 4.3 04:53:31 10° NNW 04:54:13 12° NW 04:54:13 12° NW
Cosmos 1805 4.0 04:53:38 10° N 04:57:02 52° NE 04:57:02 52° NE
Cosmos 2058 Rocket 3.1 04:54:16 10° N 04:58:41 76° E 04:58:41 76° E
Cosmos 841 Rocket 3.3 05:05:16 70° WSW 05:05:44 77° WNW 05:10:55 10° NNE
Cosmos 1626 Rocket 3.6 05:09:26 55° SSE 05:10:16 72° E 05:14:33 10° N
SL-8 R/B 3.6 05:10:06 45° NW 05:11:35 89° SW 05:16:24 10° SE
Meteosat 1 Rocket2 4.3 05:10:14 46° WSW 05:12:27 75° S 05:22:06 10° E
Cosmos 2228 3.4 05:11:02 10° NNW 05:14:16 46° NW 05:14:16 46° NW
Cosmos 2360 4.2 05:10:41 10° NNW 05:16:13 54° WSW 05:18:17 35° SSW
PSLV R/B 4.1 05:19:50 41° E 05:19:50 41° E 05:22:00 10° ENE
NOSS 3-2 (C) 3.6 05:19:02 27° S 05:22:15 64° ESE 05:28:23 10° NE
SJ 16-02 3.9 05:22:28 10° NNE 05:25:57 22° ENE 05:29:24 10° ESE
Cosmos 540 Rocket 3.3 05:26:51 32° SSW 05:29:15 84° WNW 05:34:24 10° NNE
CZ-4B R/B 3.0 05:25:19 10° NNE 05:29:30 73° E 05:31:39 26° S
BREEZE-M DEB (TANK) 3.8 05:30:40 26° SSW 05:32:52 47° SE 05:36:16 10° ENE
ATLAS 3B R/B 3.1 05:34:18 29° WSW 05:37:39 47° WNW 05:44:22 10° NNE
USA 161 4.4 05:37:12 10° SE 05:39:34 21° ENE 05:41:57 10° NNE
NOSS 3-2 (A) 3.4 05:37:32 30° SW 05:40:25 62° WNW 05:46:38 10° NNE
Cosmos 1733 3.1 05:38:39 10° N 05:42:31 89° W 05:46:23 10° S
Cosmos 1238 Rocket 4.3 05:41:06 10° S 05:47:12 72° E 05:53:51 10° N
Cosmos 1898 Rocket 4.2 05:42:58 10° NW 05:47:26 29° W 05:49:16 24° SW
Hubble Space Telescope 2.0 05:52:28 22° SSW 05:52:55 23° SSW 05:56:12 10° SSE
Okean O Rocket 1.7 05:48:43 10° NNE 05:53:04 76° ESE 05:57:23 10° S
Cosmos 2360 Rocket 4.0 05:48:55 10° N 05:54:00 35° ENE 05:59:06 10° SE
Transit 2A Rocket 4.4 05:50:36 10° NNW 05:54:56 62° WSW 05:59:08 10° SSE
MOS 1-B 4.5 05:49:50 10° N 05:55:29 56° WNW 06:00:53 11° SSW
SEDSat Delta rocket 4.1 05:50:44 18° W 05:55:57 81° N 06:02:47 10° E
Cosmos 1980 Rocket 3.3 05:52:02 10° NW 05:56:09 21° W 05:56:42 21° WSW
Cosmos 1470 2.6 05:53:41 10° N 05:57:39 77° W 06:01:35 10° S
Cosmos 1825 Rocket 3.6 05:55:47 10° S 06:00:06 79° E 06:04:24 10° N
CENTAUR R/B 3.2 05:55:04 10° S 06:00:29 50° ESE 06:06:35 10° NE
Cosmos 1937 Rocket 4.1 05:56:17 10° NW 06:00:48 31° W 06:05:15 10° SSW
SL-16 R/B 2.2 06:01:17 10° NNW 06:06:52 63° WSW 06:12:26 10° S
Cosmos 1707 3.4 06:11:07 13° SW 06:14:07 33° W 06:17:38 10° NNW
S3M 4.1 06:08:00 10° S 06:14:08 80° E 06:20:15 10° N
Aureole 2 Rocket 3.4 06:11:50 10° N 06:15:30 53° ENE 06:18:54 10° SSE
ATLAS 5 CENTAUR R/B 3.2 06:09:59 13° WSW 06:19:07 33° S 06:23:19 10° ESE
Meteor 1-16 Rocket 4.4 06:15:18 10° N 06:20:56 78° E 06:26:22 10° S
BREEZE-M DEB 3.7 06:19:13 14° SW 06:21:01 64° SE 06:23:37 10° NE
ERBS 2.6 06:19:14 14° SW 06:22:00 48° NW 06:25:17 10° NNE
Cosmos 1953 3.3 06:18:39 10° NNW 06:22:07 28° W 06:25:34 10° SSW
Cosmos 2322 Rocket 2.4 06:18:23 10° NW 06:23:42 45° WSW 06:29:00 10° S
OAO 3 Rocket 3.6 06:19:37 10° W 06:24:04 42° SSW 06:28:33 10° SE
Cosmos 1400 Rocket 3.1 06:20:22 10° S 06:24:13 71° E 06:28:08 10° NNE
Cosmos 1953 Rocket 3.5 06:20:18 10° S 06:24:46 77° W 06:29:14 10° N
Delta 2 Rocket 4.1 06:19:36 12° WSW 06:24:52 82° NNW 06:30:10 10° ENE
CZ-4B R/B 4.1 06:22:55 10° N 06:26:35 45° WNW 06:30:23 10° SSW
Meteor 1-31 Rocket 3.3 06:25:42 10° N 06:29:17 38° WNW 06:32:51 10° SW
Cosmos 372 Rocket 3.9 06:28:28 10° NNW 06:33:39 68° WSW 06:38:44 10° S
PAYLOAD A 4.2 06:32:34 10° NNE 06:37:56 84° ESE 06:43:06 10° S
Cosmos 1758 Rocket 4.1 06:36:43 10° SSW 06:40:42 37° W 06:44:44 10° NNW
ATLAS 2A CENTAUR R/B 4.0 06:30:42 10° WSW 06:57:39 58° S 07:03:09 10° E
